Grayling, MI

5:20 PM EDT on May 26, 2017 (GMT -0400)
Grayling

Weather History for KGOV - October, 2011

Change the Weather History Date:

Wednesday, October 26, 2011

  Actual Average (KHTL) Record (KHTL)
Temperature  
Mean Temperature 42 °F -  
Max Temperature 46 °F 52 °F 82 °F (1927)
Min Temperature 37 °F 36 °F 17 °F (1950)
Degree Days  
Heating Degree Days 24    
Moisture  
Dew Point 36 °F    
Average Humidity 86    
Maximum Humidity 100    
Minimum Humidity 66    
Precipitation  
Precipitation 0.00 in - - ()
Sea Level Pressure  
Sea Level Pressure 29.91 in    
Wind  
Wind Speed 8 mph (NNE)    
Max Wind Speed 13 mph    
Max Gust Speed 17 mph    
Visibility 9 miles    
Events Rain    
Averages and records for this station are not official NWS values.
T = Trace of Precipitation, MM = Missing Value Source: NWS Daily Summary

Daily Weather History Graph

Daily Weather History Graph

Search for Another Location

Airport or City:

Trip Planner

Search our weather history database for the weather conditions in past years. The results will help you decide how hot, cold, wet, or windy it might be!

Date:

Astronomy

Oct. 26, 2011 Rise Set
Actual Time 8:08 AM EDT 6:36 PM EDT
Civil Twilight 7:38 AM EDT 7:06 PM EDT
Nautical Twilight 7:04 AM EDT 7:40 PM EDT
Astronomical Twilight 6:30 AM EDT 8:14 PM EDT
Moon 7:57 AM EDT 6:15 PM EDT
Length of Visible Light 11h 28m
Length of Day
10h 28m
Waning Crescent, 0% of the Moon is Illuminated
Oct 26
Waning Crescent
Oct 26
New
Nov 2
First Quarter
Nov 10
Full
Nov 18
Last Quarter

Hourly Weather History & Observations

Time (EDT) Temp. Windchill Dew Point Humidity Pressure Visibility Wind Dir Wind Speed Gust Speed Precip Events Conditions
12:15 AM 39.2 °F 33.0 °F 39.2 °F 100% 29.91 in 5.0 mi NE 9.2 mph - N/A   Drizzle
12:34 AM 39.2 °F 33.0 °F 39.2 °F 100% 29.90 in 7.0 mi NNE 9.2 mph - N/A Rain Light Rain
12:54 AM 39.2 °F 33.0 °F 39.2 °F 100% 29.90 in 7.0 mi NE 9.2 mph - N/A   Light Drizzle
1:14 AM 39.2 °F 33.0 °F 39.2 °F 100% 29.89 in 5.0 mi NE 9.2 mph - N/A Rain Light Rain
1:34 AM 39.2 °F 32.0 °F 39.2 °F 100% 29.88 in 5.0 mi NE 11.5 mph 17.3 mph N/A   Drizzle
1:55 AM 39.2 °F 31.6 °F 39.2 °F 100% 29.88 in 4.0 mi NE 12.7 mph - N/A Rain Light Rain
2:14 AM 39.2 °F 32.5 °F 39.2 °F 100% 29.88 in 5.0 mi NE 10.4 mph - N/A   Overcast
2:34 AM 39.2 °F 32.5 °F 39.2 °F 100% 29.89 in 7.0 mi NNE 10.4 mph - N/A   Overcast
2:55 AM 39.2 °F 32.5 °F 37.4 °F 93% 29.87 in 10.0 mi NE 10.4 mph - N/A   Overcast
3:15 AM 37.4 °F 31.4 °F 37.4 °F 100% 29.88 in 10.0 mi NE 8.1 mph - N/A   Overcast
3:34 AM 37.4 °F 31.4 °F 37.4 °F 100% 29.89 in 10.0 mi NE 8.1 mph - N/A   Overcast
3:55 AM 37.4 °F 32.1 °F 37.4 °F 100% 29.89 in 10.0 mi NE 6.9 mph - N/A   Overcast
4:14 AM 37.4 °F 31.4 °F 37.4 °F 100% 29.89 in 10.0 mi NE 8.1 mph - N/A   Overcast
4:34 AM 37.4 °F 31.4 °F 37.4 °F 100% 29.88 in 10.0 mi NNE 8.1 mph - N/A   Overcast
4:55 AM 37.4 °F 31.4 °F 37.4 °F 100% 29.88 in 10.0 mi NNE 8.1 mph - N/A   Overcast
5:14 AM 37.4 °F 30.8 °F 35.6 °F 93% 29.88 in 10.0 mi NNE 9.2 mph - N/A   Overcast
5:35 AM 37.4 °F 29.8 °F 35.6 °F 93% 29.88 in 10.0 mi NNE 11.5 mph - N/A   Overcast
5:54 AM 37.4 °F 31.4 °F 35.6 °F 93% 29.89 in 10.0 mi NNE 8.1 mph - N/A   Overcast
6:14 AM 37.4 °F 31.4 °F 35.6 °F 93% 29.90 in 10.0 mi NNE 8.1 mph - N/A   Overcast
6:35 AM 37.4 °F 30.8 °F 35.6 °F 93% 29.89 in 10.0 mi NNE 9.2 mph - N/A   Overcast
6:55 AM 37.4 °F 30.8 °F 35.6 °F 93% 29.89 in 10.0 mi NNE 9.2 mph - N/A   Overcast
7:14 AM 37.4 °F 32.1 °F 35.6 °F 93% 29.90 in 10.0 mi NNE 6.9 mph - N/A   Overcast
7:35 AM 37.4 °F 32.1 °F 35.6 °F 93% 29.89 in 10.0 mi NNE 6.9 mph - N/A   Overcast
8:14 AM 37.4 °F 33.8 °F 35.6 °F 93% 29.89 in 10.0 mi NNE 4.6 mph - N/A   Overcast
8:35 AM 37.4 °F 33.8 °F 35.6 °F 93% 29.89 in 10.0 mi North 4.6 mph - N/A   Overcast
8:54 AM 37.4 °F 33.8 °F 35.6 °F 93% 29.92 in 10.0 mi North 4.6 mph - N/A   Overcast
9:14 AM 39.2 °F 34.2 °F 37.4 °F 93% 29.92 in 10.0 mi NNE 6.9 mph - N/A   Overcast
9:34 AM 39.2 °F 35.9 °F 37.4 °F 93% 29.92 in 10.0 mi NNE 4.6 mph - N/A   Overcast
9:54 AM 39.2 °F 35.9 °F 37.4 °F 93% 29.92 in 10.0 mi NNE 4.6 mph - N/A   Overcast
10:14 AM 39.2 °F 35.0 °F 37.4 °F 93% 29.92 in 10.0 mi NE 5.8 mph - N/A   Overcast
10:35 AM 39.2 °F 35.0 °F 37.4 °F 93% 29.93 in 10.0 mi North 5.8 mph - N/A   Overcast
10:54 AM 39.2 °F 35.9 °F 37.4 °F 93% 29.93 in 10.0 mi NNE 4.6 mph - N/A   Overcast
11:14 AM 41.0 °F 37.1 °F 37.4 °F 87% 29.92 in 10.0 mi NNE 5.8 mph - N/A   Overcast
11:55 AM 41.0 °F 35.2 °F 37.4 °F 87% 29.93 in 10.0 mi NE 9.2 mph - N/A   Overcast
12:14 PM 42.8 °F 38.0 °F 35.6 °F 76% 29.94 in 10.0 mi NNE 8.1 mph - N/A   Overcast
12:55 PM 44.6 °F 39.7 °F 37.4 °F 76% 29.92 in 10.0 mi NE 9.2 mph - N/A   Overcast
1:14 PM 44.6 °F 40.7 °F 35.6 °F 71% 29.92 in 10.0 mi NNE 6.9 mph - N/A   Overcast
1:34 PM 46.4 °F 41.9 °F 37.4 °F 71% 29.93 in 10.0 mi NE 9.2 mph - N/A   Overcast
1:55 PM 44.6 °F 39.7 °F 35.6 °F 71% 29.91 in 10.0 mi NE 9.2 mph - N/A   Mostly Cloudy
2:14 PM 46.4 °F 42.9 °F 35.6 °F 66% 29.91 in 10.0 mi North 6.9 mph - N/A   Scattered Clouds
2:34 PM 46.4 °F 42.4 °F 35.6 °F 66% 29.92 in 10.0 mi NNE 8.1 mph - N/A   Mostly Cloudy
2:55 PM 46.4 °F 42.9 °F 35.6 °F 66% 29.91 in 10.0 mi NE 6.9 mph - N/A   Overcast
3:14 PM 46.4 °F 42.9 °F 35.6 °F 66% 29.90 in 10.0 mi NE 6.9 mph - N/A   Overcast
3:34 PM 44.6 °F 40.2 °F 33.8 °F 66% 29.91 in 10.0 mi NNE 8.1 mph - N/A   Overcast
3:55 PM 44.6 °F 41.4 °F 35.6 °F 71% 29.92 in 10.0 mi North 5.8 mph - N/A   Overcast
4:14 PM 46.4 °F 42.4 °F 35.6 °F 66% 29.93 in 10.0 mi North 8.1 mph - N/A   Overcast
4:35 PM 46.4 °F 43.5 °F 35.6 °F 66% 29.92 in 10.0 mi North 5.8 mph - N/A   Overcast
4:54 PM 44.6 °F 40.2 °F 33.8 °F 66% 29.93 in 10.0 mi North 8.1 mph - N/A   Overcast
5:14 PM 44.6 °F 40.2 °F 33.8 °F 66% 29.93 in 10.0 mi North 8.1 mph - N/A   Overcast
5:35 PM 44.6 °F 41.4 °F 33.8 °F 66% 29.93 in 10.0 mi North 5.8 mph - N/A   Overcast
6:14 PM 41.0 °F 35.8 °F 33.8 °F 76% 29.93 in 10.0 mi North 8.1 mph - N/A   Overcast
6:35 PM 41.0 °F 38.0 °F 33.8 °F 76% 29.93 in 10.0 mi North 4.6 mph - N/A   Overcast
6:54 PM 41.0 °F 37.1 °F 33.8 °F 76% 29.94 in 10.0 mi North 5.8 mph - N/A   Overcast
7:14 PM 39.2 °F 37.0 °F 33.8 °F 81% 29.94 in 10.0 mi North 3.5 mph - N/A   Overcast
7:35 PM 39.2 °F 35.9 °F 33.8 °F 81% 29.93 in 10.0 mi North 4.6 mph - N/A   Overcast
8:15 PM 39.2 °F 35.0 °F 33.8 °F 81% 29.94 in 10.0 mi NNE 5.8 mph - N/A   Overcast
8:35 PM 37.4 °F 33.8 °F 33.8 °F 87% 29.94 in 10.0 mi North 4.6 mph - N/A   Scattered Clouds
8:54 PM 37.4 °F 33.8 °F 33.8 °F 87% 29.95 in 10.0 mi North 4.6 mph - N/A   Clear
9:15 PM 37.4 °F - 33.8 °F 87% 29.95 in 10.0 mi Calm Calm - N/A   Clear
9:34 PM 35.6 °F - 33.8 °F 93% 29.94 in 10.0 mi Calm Calm - N/A   Clear
9:54 PM 35.6 °F - 33.8 °F 93% 29.95 in 10.0 mi Calm Calm - N/A   Clear
10:15 PM 35.6 °F - 33.8 °F 93% 29.96 in 10.0 mi Calm Calm - N/A   Clear
10:34 PM 33.8 °F - 33.8 °F 100% 29.95 in 10.0 mi Calm Calm - N/A   Clear
10:54 PM 33.8 °F - 33.8 °F 100% 29.95 in 10.0 mi Calm Calm - N/A   Clear
11:34 PM 32.0 °F - 32.0 °F 100% 29.94 in 5.0 mi Calm Calm - N/A   Clear